Location: Old Broadwell Mill Observatory
(33.8015°N, 85.8137°W)
Time: 17:18:18
(UTC-05:00)

Daily predictions for brighter satellites

Satellite Brightness Start Highest point End
(mag) Time Altitude Azimuth Time Altitude Azimuth Time Altitude Azimuth
Hubble Space Telescope 2.2 19:36:31 10° WSW 19:40:05 28° SSW 19:43:39 10° SE
Cosmos 1821 Rocket 3.9 19:35:45 10° S 19:41:50 73° E 19:47:54 10° N
Helios 1A 2.9 19:38:23 10° SSE 19:42:32 75° ENE 19:46:43 10° N
Tiangong 1 3.6 19:41:10 10° NW 19:43:10 16° N 19:45:09 10° NE
Cosmos 2227 Rocket 2.9 19:39:35 10° N 19:44:43 34° ENE 19:49:48 10° SE
Cosmos 968 Rocket 4.0 19:39:51 10° NNW 19:44:55 64° WSW 19:49:57 10° S
Cosmos 1605 Rocket 4.4 19:39:05 10° SSE 19:45:00 42° E 19:50:51 10° NNE
Meteor 2-21 Rocket 4.5 19:43:01 10° S 19:49:12 85° E 19:55:25 10° N
Lacrosse 5 4.0 19:50:43 10° N 19:52:58 13° NNE 19:55:13 10° ENE
ATLAS 3B CENTAUR R/B 1.9 19:52:42 10° WSW 19:54:17 16° SSW 19:55:29 11° SSE
DELTA 2 R/B (1) 4.2 19:50:53 10° WNW 19:56:17 50° N 20:01:39 10° E
Meteor 1-5 Rocket 4.1 19:51:05 10° S 19:56:23 83° E 20:01:50 10° N
Cosmos 1461 3.5 19:53:09 10° N 19:56:53 36° ENE 19:59:59 13° ESE
Cosmos 1346 Rocket 3.0 19:55:01 10° N 19:58:53 51° E 20:02:47 10° SSE
Cosmos 2082 4.1 19:54:30 10° N 19:59:50 43° ENE 20:05:00 11° SE
Cosmos 2297 Rocket 3.0 19:54:56 10° N 19:59:59 33° ENE 20:04:20 13° ESE
Cosmos 1025 Rocket 4.0 19:59:10 10° NNW 20:03:22 50° W 20:07:32 10° SSW
Meteor 2-15 4.4 19:57:44 10° N 20:03:47 74° E 20:09:50 10° SSE
Meteor 2-15 Rocket 4.4 20:03:54 10° N 20:09:58 71° E 20:16:00 10° SSE
Cosmos 1626 Rocket 4.2 20:06:06 10° NNE 20:10:06 33° E 20:13:07 15° SE
Cosmos 1455 Rocket 3.2 20:06:10 10° S 20:10:28 78° W 20:14:50 10° N
Cosmos 1892 Rocket 3.9 20:06:06 10° N 20:10:35 72° W 20:15:02 10° S
Cosmos 468 Rocket 4.3 20:12:13 10° S 20:17:01 41° ESE 20:21:48 10° NNE
Cosmos 2123 Rocket 3.9 20:12:46 10° N 20:18:58 81° E 20:25:08 10° S
Cosmos 1602 Rocket 3.9 20:15:12 10° N 20:19:27 44° E 20:22:28 18° SSE
Resurs 1-3 4.5 20:15:14 10° S 20:19:29 51° W 20:23:47 10° NNW
RESURS DK-1 4.4 20:18:00 10° NNE 20:19:55 13° ENE 20:20:28 13° ENE
CZ-4 DEB 4.2 20:22:56 21° ENE 20:22:56 21° ENE 20:25:18 10° NNE
Cosmos 1743 4.3 20:26:38 20° ENE 20:26:38 20° ENE 20:28:48 10° NE
Cosmos 1814 Rocket 4.3 20:22:22 10° S 20:27:26 45° ESE 20:32:28 10° NNE
SL-24 R/B - RUBIN 2 4.4 20:24:17 10° SSW 20:29:56 80° WNW 20:36:21 10° NNE
Cosmos 220 Rocket 4.2 20:26:07 10° N 20:30:13 48° ENE 20:31:56 30° SE
Cosmos 1697 Rocket 2.6 20:26:58 10° S 20:32:32 65° ESE 20:38:08 10° NNE
OAO 2 Rocket 3.3 20:30:28 10° W 20:35:29 79° N 20:38:28 25° E
Resurs 01 Rocket 4.1 20:38:14 10° SW 20:41:36 21° W 20:45:00 10° NW
NOSS 3-4 (A) 4.2 20:36:41 10° NW 20:43:44 65° WSW 20:50:18 14° SSE
NOSS 3-4 (C) 4.2 20:36:48 10° NW 20:43:52 65° WSW 20:50:22 14° SSE
Cosmos 1153 Rocket 4.4 20:38:16 10° S 20:44:29 88° W 20:50:40 10° N
Delta 2 Rocket 4.2 20:39:41 10° W 20:45:17 61° SSW 20:47:21 35° SE
ALOS 3.3 20:42:07 10° S 20:46:36 46° W 20:51:05 10° NNW
H-2A R/B 3.9 20:46:09 10° S 20:49:49 44° W 20:53:34 10° NNW
Cosmos 1975 3.7 20:46:19 10° SSW 20:50:18 51° W 20:54:19 10° N
USA 186 3.3 20:52:39 18° SSW 20:54:27 33° W 20:57:12 10° NNW
Cosmos 1980 Rocket 2.1 20:50:03 10° S 20:55:35 60° ESE 21:01:11 10° NNE
Cosmos 1802 Rocket 4.0 20:55:57 24° SSE 20:59:50 59° E 21:06:08 10° NNE
Envisat 3.1 21:00:26 48° ESE 21:01:19 55° ENE 21:06:17 10° N
Lacrosse 5 rocket 1.0 20:58:03 10° NW 21:01:42 74° WSW 21:01:42 74° WSW
Cosmos 2298 Rocket 3.9 20:57:10 10° NNW 21:02:30 80° ENE 21:04:08 46° SSE
OTV 4 2.1 21:03:45 10° WNW 21:05:33 31° W 21:05:33 31° W
Iridium 4 Rocket 3.8 21:03:49 10° N 21:08:38 56° W 21:11:35 20° SSW
Cosmos 1937 Rocket 3.5 21:03:36 10° N 21:08:48 57° ENE 21:09:16 55° E
Cosmos 2016 Rocket 3.9 21:11:09 46° SSE 21:12:47 62° E 21:18:51 10° NNE
Tiangong 1 3.6 21:17:56 10° NW 21:19:22 18° NNW 21:19:22 18° NNW
Hubble Space Telescope 3.4 21:19:35 10° SW 21:19:50 10° SW 21:19:50 10° SW
Cosmos 990 Rocket 4.2 21:16:09 10° N 21:20:53 52° NE 21:20:53 52° NE
Cosmos 972 Rocket 4.4 21:16:58 10° NNW 21:23:07 85° ENE 21:24:52 52° SSE
Cosmos 2173 Rocket 4.1 21:19:14 12° SSW 21:25:10 74° W 21:31:31 10° N
Cosmos 1939 Rocket 3.3 21:25:53 62° WNW 21:25:53 62° WNW 21:29:42 10° NNW
Cosmos 2263 Rocket 4.4 21:24:51 10° NE 21:25:29 11° NE 21:25:29 11° NE
Cosmos 2322 Rocket 4.2 21:32:37 15° NE 21:32:37 15° NE 21:33:39 10° NE
Cosmos 2150 Rocket 4.2 21:23:25 10° NNW 21:28:32 66° WSW 21:29:13 58° SW
Cosmos 2227 Rocket 4.0 21:23:53 10° NW 21:28:33 27° WSW 21:32:24 13° SSW
ERS-1 Rocket 3.5 21:28:09 44° SSW 21:29:23 56° W 21:34:20 10° NNW
Cosmos 2098 Rocket 4.0 21:29:39 61° SE 21:30:25 66° E 21:36:29 10° NNE
Cosmos 1825 Rocket 4.1 21:26:12 10° N 21:29:39 54° N 21:29:39 54° N
Meteor 1-21 4.1 21:30:07 10° N 21:35:55 82° E 21:35:57 82° E
Lacrosse 5 2.2 21:31:45 10° NNW 21:36:04 58° N 21:36:04 58° N
SPOT 5 3.2 21:39:47 60° N 21:39:47 60° N 21:43:46 10° N
H-2A R/B 3.2 21:40:46 38° NNW 21:40:46 38° NNW 21:43:22 10° NNW
Cosmos 2360 4.2 21:38:33 52° SW 21:39:58 79° WNW 21:45:43 10° NNE
Cosmos 1763 Rocket 3.9 21:41:43 47° WSW 21:42:50 58° WNW 21:47:51 10° N
DELTA 2 R/B (1) 3.7 21:37:26 10° WNW 21:42:25 71° W 21:42:25 71° W
Cosmos 2297 Rocket 3.8 21:39:06 10° NW 21:43:51 28° WSW 21:46:11 21° SW
Tsikada Rocket 4.3 21:46:00 10° N 21:51:23 57° NE 21:51:23 57° NE
MetOp-A 4.5 21:54:40 61° NNW 21:54:40 61° NNW 21:59:06 10° NNW
RESURS DK-1 4.4 21:54:15 10° NW 21:56:25 27° NW 21:56:25 27° NW
USA 215 4.5 22:03:14 28° NE 22:03:51 29° NNE 22:09:15 10° NNW
Terra 4.3 22:11:26 14° NNE 22:11:26 14° NNE 22:12:10 10° N
Cosmos 1725 Rocket 4.3 22:12:55 61° WNW 22:12:55 61° WNW 22:18:37 10° N
CZ-3 Stage 3 4.4 21:44:13 10° WNW 22:12:54 44° SW 22:13:39 43° SSW
Milstar 3 Cent rocket 3.9 22:04:11 10° W 22:21:56 57° SSW 22:22:31 57° S
SL-16 R/B 4.0 22:28:05 25° N 22:28:05 25° N 22:30:24 10° NNE
H-2A R/B 4.4 22:58:29 17° NNW 22:58:29 17° NNW 22:59:39 10° NNW
Cosmos 2263 Rocket 4.4 23:05:30 10° NNW 23:07:11 20° NNW 23:07:11 20° NNW
Cosmos 2322 Rocket 4.5 23:14:22 20° NNW 23:14:22 20° NNW 23:16:58 10° N
